[[{"header":{"parameterUnit":"m.s-1","parameterCategory":1,"la1":30.2991,"la2":30.254,"lo1":-89.0895,"lo2":-89.0444,"dy":0.0017,"dx":0.0017,"nx":28,"ny":28,"refTime":"2023-07-26T09:00:00:Z","depth":0,"parameterNumber":2,"parameterNumberName":"U-component_of_WINDS"},"data":[0,0,0,0,0,0,0,0,0,0,0,0,0,0,0,0,0,0,0,0,0,0,0,0,0,0,0,0,0,0,0,0,0,0,0,0,0,0,0,0,0,0,0,0,0,0,0,0,0,0,0,0,0,0,0,0,0,0,-0.2279,-0.2279,0,-0.2324,-0.2325,-0.2326,-0.2354,-0.2355,-0.2355,-0.2355,-0.2404,-0.2405,-0.2406,0,0,0,0,0,0,0,0,0,0,0,0,0,-0.2218,-0.2219,-0.2278,-0.2279,-0.228,-0.2324,-0.2325,-0.2326,-0.2354,-0.2355,-0.2355,-0.2355,-0.2403,-0.2405,-0.2406,0,0,0,0,0,0,0,0,0,0,0,0,0,-0.2252,-0.2219,-0.2278,-0.2299,-0.2302,-0.2324,-0.2325,-0.2326,-0.2354,-0.2355,-0.2355,-0.2355,-0.2403,-0.2404,-0.2406,-0.2412,0,0,-0.2411,-0.2412,0,0,0,0,0,0,0,0,-0.225,-0.2254,-0.2296,-0.2298,-0.2301,-0.2334,-0.2322,-0.2355,-0.2354,-0.2334,-0.2355,-0.2355,-0.238,-0.2384,-0.2392,-0.2414,-0.2416,-0.2412,-0.2413,-0.2413,-0.2414,0,0,0,0,0,0,0,-0.2248,-0.2253,-0.2297,-0.2296,-0.2299,-0.2307,-0.2312,-0.2328,-0.2356,-0.2336,-0.2338,-0.2343,-0.2382,-0.239,-0.2393,-0.2417,-0.2411,-0.2413,-0.2414,-0.2415,-0.2448,-0.2448,0,0,0,0,0,0,-0.2242,-0.225,-0.2295,-0.2298,-0.2275,-0.2308,-0.2314,-0.2323,-0.2355,-0.2361,-0.2343,-0.2344,-0.2387,-0.2391,-0.2395,-0.2405,-0.2413,-0.2415,-0.2416,-0.2448,-0.2448,-0.2448,0,0,0,0,0,0,-0.224,-0.2246,-0.2293,-0.2275,-0.2282,-0.2309,-0.2319,-0.2324,-0.2332,-0.2361,-0.2366,-0.2347,-0.2388,-0.2393,-0.2408,-0.2407,-0.2416,-0.2417,-0.2448,-0.2448,-0.2448,-0.2424,0,0,0,0,0,0,-0.2239,-0.2245,-0.2247,-0.2275,-0.2282,-0.2304,-0.2319,-0.2325,-0.2335,-0.2337,-0.2365,-0.237,-0.2388,-0.2405,-0.241,-0.241,-0.2419,-0.2449,-0.2448,-0.2448,-0.2425,-0.2423,-0.2422,0,0,0,0,0,-0.2236,-0.2238,-0.2247,-0.2252,-0.2285,-0.2304,-0.2309,-0.2329,-0.2335,-0.2337,-0.2356,-0.2369,-0.2407,-0.2406,-0.2412,-0.2412,-0.2449,-0.2448,-0.2448,-0.2426,-0.2424,-0.2422,0,0,0,0,0,0,-0.221,-0.2242,-0.2252,-0.2263,-0.228,-0.2309,-0.2313,-0.2326,-0.2342,-0.2344,-0.2369,-0.2375,-0.2388,-0.2402,-0.2401,-0.2421,-0.2429,-0.243,-0.2411,-0.2409,-0.2407,-0.2403,-0.242,0,0,0,0,0,-0.2205,-0.2217,-0.2245,-0.2252,-0.2261,-0.2285,-0.2294,-0.2308,-0.2328,-0.2336,-0.2355,-0.2374,-0.239,-0.24,-0.2417,-0.2428,-0.2435,-0.2431,-0.2429,-0.2427,-0.2428,-0.2436,-0.2434,-0.2447,-0.2447,-0.2447,0,0,-0.2196,-0.2215,-0.2221,-0.2247,-0.2263,-0.2276,-0.2291,-0.2304,-0.2314,-0.2338,-0.2353,-0.2368,-0.2391,-0.2404,-0.2411,-0.2416,-0.2426,-0.2427,-0.2425,-0.2427,-0.2435,-0.2434,-0.2433,-0.2447,-0.2447,-0.2447,0,0,-0.2185,-0.2201,-0.2208,-0.2224,-0.2247,-0.2263,-0.2265,-0.2292,-0.2303,-0.2319,-0.2337,-0.235,-0.2377,-0.2393,-0.2405,-0.2401,-0.2415,-0.2406,-0.2397,-0.2404,-0.2403,-0.2402,-0.2402,-0.2401,-0.2406,-0.2406,-0.2406,0,-0.2171,-0.219,-0.2211,-0.2223,-0.2234,-0.2256,-0.2265,-0.2279,-0.2307,-0.2315,-0.232,-0.2355,-0.2372,-0.239,-0.2389,-0.2398,-0.2401,-0.2403,-0.2401,-0.2401,-0.2401,-0.2401,-0.24,-0.2405,-0.2405,-0.2405,-0.2406,0,-0.2171,-0.2185,-0.2188,-0.2214,-0.2226,-0.2236,-0.226,-0.227,-0.2283,-0.2299,-0.2316,-0.2337,-0.2359,-0.2364,-0.2377,-0.2384,-0.2387,-0.2397,-0.2406,-0.2398,-0.2398,-0.2398,-0.2404,-0.2404,-0.2404,-0.2405,0,0,-0.2145,-0.2183,-0.2184,-0.2196,-0.2224,-0.2235,-0.2247,-0.2267,-0.2276,-0.2294,-0.2305,-0.2328,-0.2338,-0.2351,-0.2366,-0.2373,-0.237,-0.2382,-0.2383,-0.2379,-0.238,-0.2373,-0.2372,-0.2379,-0.2379,-0.2379,-0.2378,0,-0.2139,-0.216,-0.218,-0.2195,-0.2208,-0.223,-0.224,-0.2259,-0.2275,-0.2289,-0.2307,-0.2323,-0.2334,-0.2342,-0.2349,-0.2369,-0.2371,-0.2369,-0.2391,-0.2391,-0.2384,-0.2373,-0.2365,-0.2363,-0.2379,-0.2379,-0.2379,0,-0.2134,-0.2152,-0.2167,-0.2195,-0.2201,-0.221,-0.2231,-0.2244,-0.2266,-0.2278,-0.2293,-0.2309,-0.2324,-0.2332,-0.2353,-0.2352,-0.2362,-0.2373,-0.2373,-0.2376,-0.2384,-0.2375,-0.2362,-0.2362,-0.2379,-0.2379,-0.2379,0,-0.2114,-0.2141,-0.2155,-0.2164,-0.2196,-0.2202,-0.2216,-0.2238,-0.225,-0.2269,-0.2277,-0.2297,-0.2309,-0.2325,-0.2347,-0.235,-0.2366,-0.2376,-0.2377,-0.2376,-0.2379,-0.2378,-0.2367,-0.2385,-0.2385,-0.2385,-0.2385,0,-0.2105,-0.2114,-0.2146,-0.2154,-0.2165,-0.2189,-0.22,-0.2215,-0.2235,-0.2248,-0.2268,-0.228,-0.2308,-0.2323,-0.234,-0.2356,-0.2361,-0.2371,-0.2375,-0.2369,-0.2368,-0.2376,-0.2377,-0.2385,-0.2385,-0.2385,-0.2385,0,-0.2084,-0.2106,-0.2122,-0.2151,-0.2158,-0.2165,-0.2191,-0.22,-0.2218,-0.2233,-0.2238,-0.2266,-0.2285,-0.2308,-0.2335,-0.2347,-0.2361,-0.2367,-0.2353,-0.2356,-0.2355,-0.2355,-0.235,-0.235,-0.2367,-0.2367,-0.2366,0,-0.2077,-0.2084,-0.2114,-0.2124,-0.2137,-0.2152,-0.2164,-0.2188,-0.22,-0.2226,-0.2233,-0.2253,-0.2271,-0.23,-0.2323,-0.2344,-0.2352,-0.2348,-0.2355,-0.2349,-0.2352,-0.2352,-0.2353,-0.2347,-0.2346,-0.2346,-0.2346,0,-0.2063,-0.2073,-0.2089,-0.2109,-0.2123,-0.214,-0.2158,-0.2165,-0.2193,-0.2205,-0.2225,-0.2238,-0.2266,-0.2286,-0.231,-0.2326,-0.2341,-0.2344,-0.2345,-0.2339,-0.233,-0.2335,-0.2349,-0.2344,-0.2344,-0.2344,-0.2344,-0.2344,-0.2049,-0.2057,-0.2079,-0.2097,-0.2113,-0.213,-0.214,-0.2159,-0.2175,-0.2199,-0.2212,-0.2232,-0.2255,-0.2289,-0.2304,-0.232,-0.2325,-0.2327,-0.2328,-0.2328,-0.2326,-0.2328,-0.2324,-0.2324,-0.2324,-0.2325,-0.2325,0,-0.2036,-0.2051,-0.2067,-0.2092,-0.2106,-0.2119,-0.214,-0.2151,-0.2167,-0.2188,-0.2205,-0.2228,-0.2248,-0.2273,-0.2295,-0.2303,-0.2311,-0.2308,-0.2308,-0.2312,-0.232,-0.2316,-0.2302,-0.2302,-0.2302,-0.2302,-0.2302,-0.2302,-0.2031,-0.2045,-0.2058,-0.2082,-0.2098,-0.2116,-0.2127,-0.2143,-0.2159,-0.2184,-0.2201,-0.2217,-0.2239,-0.2263,-0.2283,-0.229,-0.2297,-0.2293,-0.2302,-0.2309,-0.2311,-0.2313,-0.231,-0.2294,-0.2294,-0.2292,-0.2292,-0.2292]},{"header":{"parameterUnit":"m.s-1","parameterCategory":1,"la1":30.2991,"la2":30.254,"lo1":-89.0895,"lo2":-89.0444,"dy":0.0017,"dx":0.0017,"nx":28,"ny":28,"refTime":"2023-07-26T09:00:00:Z","depth":0,"parameterNumber":3,"parameterNumberName":"V-component_of_WINDS"},"data":[0,0,0,0,0,0,0,0,0,0,0,0,0,0,0,0,0,0,0,0,0,0,0,0,0,0,0,0,0,0,0,0,0,0,0,0,0,0,0,0,0,0,0,0,0,0,0,0,0,0,0,0,0,0,0,0,0,0,3.0565,3.0564,0,3.0481,3.048,3.0479,3.0407,3.0406,3.0405,3.0405,3.0314,3.0312,3.0311,0,0,0,0,0,0,0,0,0,0,0,0,0,3.0659,3.0658,3.0565,3.0564,3.0563,3.0481,3.048,3.0478,3.0407,3.0406,3.0405,3.0404,3.0314,3.0312,3.031,0,0,0,0,0,0,0,0,0,0,0,0,0,3.0601,3.0658,3.0565,3.0517,3.0512,3.0481,3.0479,3.0478,3.0407,3.0406,3.0405,3.0404,3.0315,3.0313,3.031,3.0318,0,0,3.0302,3.0301,0,0,0,0,0,0,0,0,3.0604,3.0598,3.0525,3.0521,3.0515,3.0453,3.0479,3.0424,3.0408,3.0447,3.0405,3.0403,3.0361,3.0354,3.0341,3.0313,3.031,3.0302,3.0301,3.0299,3.0299,0,0,0,0,0,0,0,3.0609,3.0601,3.0531,3.0524,3.0518,3.0499,3.0489,3.0469,3.0411,3.0443,3.0438,3.0429,3.0358,3.0344,3.0338,3.0308,3.0302,3.03,3.0298,3.0297,3.0281,3.0282,0,0,0,0,0,0,3.0621,3.0605,3.0534,3.0529,3.0558,3.0498,3.0487,3.0474,3.0411,3.0401,3.043,3.0426,3.0349,3.0341,3.0335,3.0338,3.0299,3.0297,3.0296,3.028,3.0281,3.0282,0,0,0,0,0,0,3.0623,3.0615,3.0537,3.0565,3.0554,3.0498,3.0483,3.0473,3.0459,3.0402,3.0391,3.0427,3.0347,3.0338,3.0322,3.0334,3.0296,3.0294,3.0279,3.028,3.0282,3.0346,0,0,0,0,0,0,3.0626,3.0616,3.062,3.0566,3.0553,3.0528,3.0484,3.0472,3.0455,3.0449,3.0395,3.0385,3.0346,3.0327,3.032,3.033,3.0292,3.0277,3.0279,3.0281,3.0343,3.035,3.0356,0,0,0,0,0,3.063,3.064,3.062,3.0612,3.0556,3.0529,3.0521,3.0477,3.0457,3.0459,3.0422,3.0387,3.0335,3.0326,3.0317,3.0327,3.0276,3.0279,3.0281,3.034,3.0348,3.0356,0,0,0,0,0,0,3.0695,3.0632,3.0609,3.0603,3.0572,3.0517,3.0518,3.0487,3.046,3.0455,3.04,3.0388,3.0378,3.0351,3.0342,3.033,3.0301,3.0302,3.0348,3.0356,3.0362,3.0368,3.029,0,0,0,0,0,3.071,3.0694,3.0639,3.0639,3.0625,3.0575,3.0561,3.053,3.0494,3.048,3.0442,3.0408,3.0383,3.0368,3.0343,3.0339,3.0325,3.0341,3.0348,3.0354,3.0354,3.0349,3.0355,3.029,3.029,3.029,0,0,3.0738,3.0702,3.0695,3.0652,3.0624,3.0607,3.0564,3.0548,3.0535,3.0477,3.046,3.0431,3.0389,3.0379,3.0372,3.0356,3.037,3.0357,3.0362,3.0359,3.0352,3.0358,3.0363,3.0292,3.0292,3.0291,0,0,3.078,3.0753,3.0749,3.0722,3.0681,3.0647,3.0647,3.0596,3.0575,3.0557,3.0513,3.0496,3.0456,3.0427,3.0407,3.044,3.0406,3.0433,3.0467,3.0462,3.0467,3.0471,3.0481,3.0485,3.0435,3.0435,3.0435,0,3.082,3.0795,3.075,3.0738,3.0719,3.0668,3.0663,3.0639,3.0591,3.0578,3.0562,3.0509,3.0478,3.0459,3.0467,3.0454,3.0449,3.0438,3.047,3.0474,3.0477,3.0486,3.049,3.0438,3.0438,3.0437,3.0437,0,3.0845,3.0829,3.083,3.0787,3.0769,3.076,3.0712,3.0699,3.067,3.0638,3.0619,3.058,3.0545,3.0538,3.0509,3.0516,3.0506,3.0481,3.0449,3.0487,3.0494,3.0497,3.0443,3.0442,3.0441,3.044,0,0,3.0925,3.0858,3.0859,3.0838,3.079,3.0775,3.0763,3.0731,3.072,3.0689,3.0676,3.0643,3.0619,3.0597,3.0564,3.056,3.0586,3.0534,3.0532,3.0543,3.0589,3.0607,3.0612,3.0565,3.0565,3.0566,3.0592,0,3.0959,3.0936,3.0896,3.0885,3.0868,3.082,3.081,3.0778,3.0748,3.0728,3.0694,3.0671,3.0642,3.0627,3.0622,3.0585,3.0594,3.0582,3.055,3.0549,3.056,3.0616,3.0635,3.0661,3.0594,3.0595,3.0595,0,3.0994,3.0967,3.0956,3.0908,3.0899,3.0891,3.0857,3.0839,3.0801,3.078,3.0755,3.072,3.0703,3.0677,3.0652,3.0645,3.0629,3.0609,3.0609,3.0602,3.0573,3.0609,3.0669,3.0672,3.0599,3.0599,3.0599,0,3.1051,3.1012,3.1,3.0984,3.0928,3.0923,3.0899,3.0861,3.0843,3.0814,3.0801,3.077,3.0752,3.0728,3.0684,3.0669,3.0663,3.0633,3.0643,3.0644,3.0642,3.0642,3.0699,3.0636,3.0636,3.0636,3.0636,0,3.1091,3.1086,3.1025,3.1017,3.1009,3.0962,3.0955,3.0926,3.0893,3.0877,3.0834,3.082,3.0764,3.0743,3.0708,3.0692,3.0685,3.0665,3.0655,3.0668,3.067,3.0655,3.0651,3.0637,3.0637,3.0636,3.0636,0,3.1153,3.1112,3.1095,3.1044,3.1031,3.1028,3.0983,3.0973,3.0941,3.0922,3.0914,3.0863,3.0836,3.0791,3.0751,3.0727,3.0717,3.0702,3.073,3.0724,3.0735,3.0734,3.0782,3.0785,3.0723,3.0724,3.0724,0,3.118,3.1175,3.1124,3.1111,3.1089,3.1069,3.1052,3.1006,3.0989,3.0946,3.094,3.0911,3.0884,3.0843,3.0801,3.077,3.0753,3.0772,3.0747,3.0759,3.075,3.075,3.0749,3.0777,3.0777,3.0778,3.0779,0,3.1232,3.1212,3.119,3.116,3.1141,3.1115,3.1086,3.1078,3.1025,3.1008,3.0981,3.0961,3.092,3.089,3.0853,3.0826,3.0793,3.0787,3.0787,3.0799,3.0814,3.0804,3.0743,3.0786,3.0785,3.0785,3.0784,3.0784,3.1275,3.1268,3.1231,3.1207,3.1181,3.1156,3.1144,3.1111,3.1088,3.1052,3.1026,3.1,3.0961,3.0908,3.0884,3.0862,3.0847,3.0848,3.0847,3.0848,3.0852,3.082,3.0855,3.0855,3.0855,3.0854,3.0854,0,3.1323,3.1298,3.1276,3.1238,3.1219,3.1192,3.1159,3.1144,3.1123,3.1091,3.1066,3.1034,3.1005,3.0962,3.0929,3.0919,3.0903,3.0912,3.0911,3.0905,3.0868,3.087,3.0926,3.0926,3.0926,3.0926,3.0926,3.0926,3.1346,3.1332,3.1308,3.128,3.1253,3.1229,3.1212,3.1188,3.1162,3.1129,3.1105,3.1078,3.104,3.1005,3.0976,3.0964,3.0953,3.0966,3.0949,3.0914,3.0908,3.0901,3.0903,3.0965,3.0965,3.0987,3.0988,3.0988]}]]